Location: ??????
(55.7522°N, 37.6156°E)
Time: 17:33:13
(UTC+00:00)

Tsikada Rocket - Pass Details

Date: 14 June 2025
Orbit: 958 x 1007 km, 82.9° (Epoch: 12 July)

Event Time Altitude Azimuth Distance (km) Brightness Sun altitude
Exits shadow 21:27:22 14° 175° (S) 2,421 5.4 -10.9°
Maximum altitude 21:32:44 68° 96° (E) 1,051 4.2 -10.9°
Drops below altitude 10° 21:38:59 10° 15° (NNE) 2,754 7.8 -10.9°
Sets 21:41:32 0° 13° (NNE) 3,714 9.0 -10.9°
